| time (UTC) | temp F | wind direction | speed MPH | gust MPH | rain 1hr in | rain 24hr in | rain mn in | humidity % | barometer mb |
| 20260902073544 | 66 | 258 | 1.0 | 5.0 | 0.00 | 0.00 | 0.00 | 69 | 1022.0 |
| 20260902073042 | 66 | 35 | 4.0 | 5.0 | 0.00 | 0.00 | 0.00 | 70 | 1021.9 |
| 20260902072545 | 65 | 93 | 2.0 | 5.0 | 0.00 | 0.00 | 0.00 | 70 | 1022.0 |
| 20260902072045 | 65 | 61 | 1.0 | 4.0 | 0.00 | 0.00 | 0.00 | 70 | 1022.0 |
| 20260902071544 | 65 | 48 | 4.0 | 4.0 | 0.00 | 0.00 | 0.00 | 71 | 1022.0 |
| 20260902071042 | 64 | 36 | 0.0 | 1.0 | 0.00 | 0.00 | 0.00 | 72 | 1022.0 |
| 20260902070545 | 64 | 91 | 1.0 | 4.0 | 0.00 | 0.00 | 0.00 | 73 | 1022.1 |
| 20260902070042 | 64 | 89 | 0.0 | 2.0 | 0.00 | 0.00 | 0.00 | 73 | 1022.1 |
| 20260902065542 | 63 | 79 | 2.0 | 4.0 | 0.00 | 0.00 | 0.00 | 74 | 1022.1 |
| 20260902065042 | 63 | 84 | 2.0 | 4.0 | 0.00 | 0.00 | 0.00 | 74 | 1022.1 |
| 20260902064547 | 63 | 67 | 2.0 | 5.0 | 0.00 | 0.00 | 0.00 | 75 | 1022.0 |
| 20260902064045 | 62 | 79 | 1.0 | 4.0 | 0.00 | 0.00 | 0.00 | 76 | 1022.0 |
| 20260902063542 | 62 | 110 | 1.0 | 4.0 | 0.00 | 0.00 | 0.00 | 76 | 1022.0 |
| 20260902063042 | 61 | 123 | 3.0 | 4.0 | 0.00 | 0.00 | 0.00 | 77 | 1021.9 |
| 20260902062548 | 61 | 131 | 1.0 | 5.0 | 0.00 | 0.00 | 0.00 | 77 | 1021.9 |
| 20260902062048 | 60 | 154 | 3.0 | 4.0 | 0.00 | 0.00 | 0.00 | 78 | 1022.0 |
| 20260902061544 | 60 | 155 | 1.0 | 4.0 | 0.00 | 0.00 | 0.00 | 78 | 1022.0 |
| 20260902061042 | 59 | 127 | 2.0 | 6.0 | 0.00 | 0.00 | 0.00 | 79 | 1022.0 |
| 20260902060545 | 59 | 141 | 2.0 | 4.0 | 0.00 | 0.00 | 0.00 | 80 | 1022.0 |
| 20260902060042 | 59 | 103 | 4.0 | 4.0 | 0.00 | 0.00 | 0.00 | 79 | 1022.0 |
| 20260902055545 | 59 | 103 | 3.0 | 3.0 | 0.00 | 0.00 | 0.00 | 78 | 1022.0 |
| 20260902055048 | 59 | 103 | 1.0 | 4.0 | 0.00 | 0.00 | 0.00 | 78 | 1022.0 |
| 20260902054546 | 59 | 150 | 3.0 | 6.0 | 0.00 | 0.00 | 0.00 | 77 | 1022.0 |
| 20260902054045 | 59 | 143 | 5.0 | 6.0 | 0.00 | 0.00 | 0.00 | 78 | 1022.1 |
| 20260902053548 | 59 | 140 | 3.0 | 6.0 | 0.00 | 0.00 | 0.00 | 78 | 1022.0 |
| 20260902053048 | 59 | 174 | 3.0 | 4.0 | 0.00 | 0.00 | 0.00 | 78 | 1021.9 |
| 20260902052542 | 59 | 127 | 2.0 | 6.0 | 0.00 | 0.00 | 0.00 | 78 | 1021.9 |
| 20260902052043 | 59 | 142 | 3.0 | 6.0 | 0.00 | 0.00 | 0.00 | 78 | 1021.8 |
| 20260902051548 | 59 | 145 | 4.0 | 5.0 | 0.00 | 0.00 | 0.00 | 78 | 1021.8 |
| 20260902051045 | 58 | 247 | 1.0 | 5.0 | 0.00 | 0.00 | 0.00 | 79 | 1021.7 |
| 20260902050548 | 58 | 199 | 5.0 | 6.0 | 0.00 | 0.00 | 0.00 | 79 | 1021.7 |
| 20260902050048 | 58 | 149 | 2.0 | 6.0 | 0.00 | 0.00 | 0.00 | 80 | 1021.7 |
| 20260902045548 | 57 | 105 | 2.0 | 6.0 | 0.00 | 0.00 | 0.00 | 80 | 1021.6 |
| 20260902045043 | 57 | 145 | 5.0 | 6.0 | 0.00 | 0.00 | 0.00 | 80 | 1021.5 |
| 20260902044542 | 57 | 248 | 3.0 | 7.0 | 0.00 | 0.00 | 0.00 | 81 | 1021.5 |
| 20260902044048 | 57 | 154 | 5.0 | 5.0 | 0.00 | 0.00 | 0.00 | 81 | 1021.5 |
| 20260902043545 | 57 | 155 | 4.0 | 11.0 | 0.00 | 0.00 | 0.00 | 81 | 1021.5 |
| 20260902043042 | 57 | 163 | 5.0 | 8.0 | 0.00 | 0.00 | 0.00 | 82 | 1021.5 |
| 20260902042549 | 56 | 170 | 6.0 | 7.0 | 0.00 | 0.00 | 0.00 | 83 | 1021.4 |
| 20260902042048 | 56 | 144 | 3.0 | 7.0 | 0.00 | 0.00 | 0.00 | 84 | 1021.3 |
| 20260902041551 | 55 | 164 | 4.0 | 4.0 | 0.00 | 0.00 | 0.00 | 84 | 1021.4 |
| 20260902041045 | 55 | 133 | 2.0 | 8.0 | 0.00 | 0.00 | 0.00 | 83 | 1021.3 |
| 20260902040542 | 56 | 126 | 5.0 | 7.0 | 0.00 | 0.00 | 0.00 | 82 | 1021.4 |
| 20260902040047 | 56 | 95 | 4.0 | 5.0 | 0.00 | 0.00 | 0.00 | 81 | 1021.3 |
| 20260902035542 | 57 | 93 | 2.0 | 5.0 | 0.00 | 0.00 | 0.00 | 80 | 1021.3 |
| 20260902035045 | 57 | 153 | 3.0 | 4.0 | 0.00 | 0.00 | 0.00 | 81 | 1021.3 |
| 20260902034542 | 57 | 158 | 2.0 | 5.0 | 0.00 | 0.00 | 0.00 | 81 | 1021.4 |
| 20260902034042 | 56 | 136 | 2.0 | 3.0 | 0.00 | 0.00 | 0.00 | 81 | 1021.5 |
| 20260902033545 | 57 | 135 | 2.0 | 5.0 | 0.00 | 0.00 | 0.00 | 80 | 1021.4 |
| 20260902033050 | 57 | 138 | 3.0 | 5.0 | 0.00 | 0.00 | 0.00 | 80 | 1021.5 |
| 20260902032542 | 57 | 128 | 5.0 | 5.0 | 0.00 | 0.00 | 0.00 | 79 | 1021.5 |
| 20260902032042 | 58 | 123 | 3.0 | 4.0 | 0.00 | 0.00 | 0.00 | 78 | 1021.6 |
| 20260902031542 | 58 | 129 | 3.0 | 4.0 | 0.00 | 0.00 | 0.00 | 78 | 1021.6 |
| 20260902031047 | 58 | 122 | 3.0 | 4.0 | 0.00 | 0.00 | 0.00 | 77 | 1021.6 |
| 20260902030542 | 58 | 117 | 3.0 | 5.0 | 0.00 | 0.00 | 0.00 | 76 | 1021.6 |
| 20260902030045 | 59 | 128 | 3.0 | 5.0 | 0.00 | 0.00 | 0.00 | 76 | 1021.6 |
| 20260902025545 | 59 | 154 | 1.0 | 3.0 | 0.00 | 0.00 | 0.00 | 76 | 1021.7 |
| 20260902025042 | 59 | 154 | 3.0 | 3.0 | 0.00 | 0.00 | 0.00 | 75 | 1021.7 |
| 20260902024548 | 59 | 134 | 3.0 | 4.0 | 0.00 | 0.00 | 0.00 | 75 | 1021.7 |
| 20260902024050 | 59 | 213 | 2.0 | 3.0 | 0.00 | 0.00 | 0.00 | 75 | 1021.7 |
| 20260902023542 | 59 | 166 | 1.0 | 5.0 | 0.00 | 0.00 | 0.00 | 74 | 1021.7 |
| 20260902023048 | 60 | 161 | 0.0 | 5.0 | 0.00 | 0.00 | 0.00 | 74 | 1021.7 |
| 20260902022548 | 60 | 208 | 1.0 | 4.0 | 0.00 | 0.00 | 0.00 | 75 | 1021.7 |
| 20260902022045 | 59 | 193 | 1.0 | 5.0 | 0.00 | 0.00 | 0.00 | 75 | 1021.8 |
| 20260902021545 | 59 | 187 | 0.0 | 2.0 | 0.00 | 0.00 | 0.00 | 75 | 1021.8 |
| 20260902021053 | 60 | 187 | 1.0 | 3.0 | 0.00 | 0.00 | 0.00 | 74 | 1021.8 |
| 20260902020542 | 60 | 187 | 2.0 | 3.0 | 0.00 | 0.00 | 0.00 | 73 | 1021.7 |
| 20260902020051 | 60 | 157 | 0.0 | 3.0 | 0.00 | 0.00 | 0.00 | 73 | 1021.7 |
| 20260902015545 | 60 | 178 | 4.0 | 4.0 | 0.00 | 0.00 | 0.00 | 73 | 1021.6 |
| 20260902015048 | 60 | 184 | 3.0 | 5.0 | 0.00 | 0.00 | 0.00 | 73 | 1021.7 |
| 20260902014542 | 60 | 160 | 5.0 | 7.0 | 0.00 | 0.00 | 0.00 | 73 | 1021.6 |
| 20260902014046 | 60 | 147 | 3.0 | 5.0 | 0.00 | 0.00 | 0.00 | 73 | 1021.7 |
| 20260902013548 | 60 | 153 | 3.0 | 6.0 | 0.00 | 0.00 | 0.00 | 73 | 1021.6 |
| 20260902013048 | 60 | 131 | 3.0 | 5.0 | 0.00 | 0.00 | 0.00 | 72 | 1021.6 |
| 20260902012542 | 60 | 164 | 3.0 | 5.0 | 0.00 | 0.00 | 0.00 | 72 | 1021.6 |
| 20260902012042 | 60 | 140 | 4.0 | 5.0 | 0.00 | 0.00 | 0.00 | 71 | 1021.5 |
| 20260902011542 | 60 | 158 | 0.0 | 7.0 | 0.00 | 0.00 | 0.00 | 71 | 1021.5 |
| 20260902011046 | 61 | 139 | 6.0 | 10.0 | 0.00 | 0.00 | 0.00 | 71 | 1021.5 |
| 20260902010545 | 60 | 156 | 10.0 | 10.0 | 0.00 | 0.00 | 0.00 | 71 | 1021.4 |
| 20260902010042 | 60 | 127 | 6.0 | 9.0 | 0.00 | 0.00 | 0.00 | 71 | 1021.5 |
| 20260902005542 | 61 | 149 | 7.0 | 9.0 | 0.00 | 0.00 | 0.00 | 71 | 1021.4 |
| 20260902005048 | 61 | 145 | 5.0 | 9.0 | 0.00 | 0.00 | 0.00 | 70 | 1021.5 |
| 20260902004543 | 62 | 167 | 4.0 | 8.0 | 0.00 | 0.00 | 0.00 | 69 | 1021.6 |
| 20260902004048 | 62 | 160 | 5.0 | 5.0 | 0.00 | 0.00 | 0.00 | 69 | 1021.5 |
| 20260902003545 | 62 | 129 | 3.0 | 5.0 | 0.00 | 0.00 | 0.00 | 68 | 1021.5 |
| 20260902003051 | 62 | 160 | 3.0 | 7.0 | 0.00 | 0.00 | 0.00 | 69 | 1021.5 |
| 20260902002542 | 61 | 193 | 3.0 | 7.0 | 0.00 | 0.00 | 0.00 | 69 | 1021.5 |
| 20260902002048 | 61 | 120 | 3.0 | 6.0 | 0.00 | 0.00 | 0.00 | 69 | 1021.6 |
| 20260902001543 | 61 | 127 | 2.0 | 7.0 | 0.00 | 0.00 | 0.00 | 69 | 1021.7 |
| 20260902001048 | 62 | 172 | 7.0 | 9.0 | 0.00 | 0.00 | 0.00 | 69 | 1021.7 |
| 20260902000548 | 62 | 96 | 5.0 | 11.0 | 0.00 | 0.00 | 0.00 | 69 | 1021.7 |
| 20260902000042 | 61 | 129 | 6.0 | 11.0 | 0.00 | 0.00 | 0.00 | 69 | 1021.7 |
| 20260901235542 | 62 | 162 | 9.0 | 10.0 | 0.00 | 0.00 | 0.00 | 69 | 1021.7 |
| 20260901235045 | 62 | 147 | 8.0 | 10.0 | 0.00 | 0.00 | 0.00 | 68 | 1021.7 |
| 20260901234543 | 62 | 145 | 7.0 | 8.0 | 0.00 | 0.00 | 0.00 | 67 | 1021.7 |
| 20260901234042 | 63 | 126 | 5.0 | 9.0 | 0.00 | 0.00 | 0.00 | 67 | 1021.7 |
| 20260901233545 | 62 | 137 | 6.0 | 8.0 | 0.00 | 0.00 | 0.00 | 68 | 1021.7 |
| 20260901233045 | 62 | 122 | 6.0 | 6.0 | 0.00 | 0.00 | 0.00 | 68 | 1021.7 |
| 20260901232545 | 63 | 133 | 4.0 | 7.0 | 0.00 | 0.00 | 0.00 | 66 | 1021.7 |
| 20260901232042 | 65 | 127 | 3.0 | 7.0 | 0.00 | 0.00 | 0.00 | 62 | 1021.7 |
| 20260901231546 | 65 | 125 | 4.0 | 5.0 | 0.00 | 0.00 | 0.00 | 61 | 1021.7 |
| 20260901231042 | 65 | 157 | 3.0 | 7.0 | 0.00 | 0.00 | 0.00 | 60 | 1021.7 |
| 20260901230542 | 65 | 197 | 3.0 | 6.0 | 0.00 | 0.00 | 0.00 | 61 | 1021.8 |
| 20260901230045 | 65 | 180 | 4.0 | 8.0 | 0.00 | 0.00 | 0.00 | 61 | 1021.8 |
| 20260901225542 | 65 | 196 | 2.0 | 8.0 | 0.00 | 0.00 | 0.00 | 61 | 1021.8 |
| 20260901225045 | 65 | 163 | 3.0 | 7.0 | 0.00 | 0.00 | 0.00 | 62 | 1021.8 |
| 20260901224547 | 65 | 119 | 3.0 | 7.0 | 0.00 | 0.00 | 0.00 | 62 | 1021.8 |
| 20260901224042 | 65 | 216 | 3.0 | 8.0 | 0.00 | 0.00 | 0.00 | 62 | 1021.9 |
| 20260901223542 | 64 | 170 | 3.0 | 7.0 | 0.00 | 0.00 | 0.00 | 63 | 1021.9 |
| 20260901223045 | 65 | 141 | 3.0 | 5.0 | 0.00 | 0.00 | 0.00 | 63 | 1021.9 |
| 20260901222548 | 65 | 155 | 2.0 | 9.0 | 0.00 | 0.00 | 0.00 | 62 | 1021.9 |
| 20260901222042 | 65 | 143 | 4.0 | 7.0 | 0.00 | 0.00 | 0.00 | 62 | 1021.9 |
| 20260901221544 | 65 | 214 | 3.0 | 6.0 | 0.00 | 0.00 | 0.00 | 62 | 1021.9 |
| 20260901221048 | 65 | 151 | 2.0 | 6.0 | 0.00 | 0.00 | 0.00 | 62 | 1021.9 |
| 20260901220542 | 65 | 166 | 3.0 | 9.0 | 0.00 | 0.00 | 0.00 | 62 | 1021.9 |
| 20260901220045 | 65 | 130 | 5.0 | 7.0 | 0.00 | 0.00 | 0.00 | 62 | 1021.9 |
| 20260901215548 | 65 | 153 | 4.0 | 9.0 | 0.00 | 0.00 | 0.00 | 62 | 1021.9 |
| 20260901215042 | 65 | 142 | 6.0 | 9.0 | 0.00 | 0.00 | 0.00 | 61 | 1021.8 |
| 20260901214549 | 65 | 180 | 6.0 | 9.0 | 0.00 | 0.00 | 0.00 | 61 | 1021.8 |
| 20260901214042 | 65 | 168 | 5.0 | 10.0 | 0.00 | 0.00 | 0.00 | 61 | 1021.9 |
| 20260901213545 | 65 | 126 | 4.0 | 9.0 | 0.00 | 0.00 | 0.00 | 61 | 1021.8 |
| 20260901213045 | 65 | 151 | 5.0 | 8.0 | 0.00 | 0.00 | 0.00 | 61 | 1021.7 |
| 20260901212542 | 66 | 168 | 6.0 | 6.0 | 0.00 | 0.00 | 0.00 | 61 | 1021.7 |
| 20260901212042 | 66 | 139 | 5.0 | 6.0 | 0.00 | 0.00 | 0.00 | 61 | 1021.6 |
| 20260901211546 | 66 | 162 | 2.0 | 6.0 | 0.00 | 0.00 | 0.00 | 61 | 1021.6 |
| 20260901211042 | 66 | 165 | 3.0 | 5.0 | 0.00 | 0.00 | 0.00 | 60 | 1021.7 |
| 20260901210542 | 66 | 139 | 1.0 | 4.0 | 0.00 | 0.00 | 0.00 | 60 | 1021.6 |
| 20260901210048 | 66 | 138 | 1.0 | 4.0 | 0.00 | 0.00 | 0.00 | 60 | 1021.7 |
| 20260901205542 | 67 | 162 | 3.0 | 5.0 | 0.00 | 0.00 | 0.00 | 59 | 1021.7 |
| 20260901205042 | 67 | 147 | 3.0 | 4.0 | 0.00 | 0.00 | 0.00 | 58 | 1021.7 |
| 20260901204543 | 67 | 155 | 4.0 | 5.0 | 0.00 | 0.00 | 0.00 | 57 | 1021.6 |
| 20260901204048 | 68 | 135 | 3.0 | 3.0 | 0.00 | 0.00 | 0.00 | 56 | 1021.6 |
| 20260901203545 | 68 | 200 | 2.0 | 3.0 | 0.00 | 0.00 | 0.00 | 56 | 1021.7 |
| 20260901203042 | 68 | 206 | 3.0 | 3.0 | 0.00 | 0.00 | 0.00 | 56 | 1021.7 |
| 20260901202548 | 68 | 199 | 1.0 | 4.0 | 0.00 | 0.00 | 0.00 | 56 | 1021.7 |
| 20260901202042 | 68 | 190 | 2.0 | 4.0 | 0.00 | 0.00 | 0.00 | 56 | 1021.6 |
| 20260901201546 | 68 | 176 | 1.0 | 1.0 | 0.00 | 0.00 | 0.00 | 56 | 1021.7 |
| 20260901201042 | 68 | 176 | 0.0 | 2.0 | 0.00 | 0.00 | 0.00 | 56 | 1021.7 |
| 20260901200548 | 68 | 176 | 1.0 | 3.0 | 0.00 | 0.00 | 0.00 | 56 | 1021.7 |
| 20260901200042 | 68 | 179 | 2.0 | 4.0 | 0.00 | 0.00 | 0.00 | 55 | 1021.6 |
| 20260901195545 | 68 | 216 | 1.0 | 3.0 | 0.00 | 0.00 | 0.00 | 55 | 1021.6 |
| 20260901195045 | 69 | 216 | 2.0 | 3.0 | 0.00 | 0.00 | 0.00 | 55 | 1021.5 |
| 20260901194544 | 69 | 216 | 2.0 | 3.0 | 0.00 | 0.00 | 0.00 | 55 | 1021.5 |
| 20260901194042 | 69 | 216 | 3.0 | 3.0 | 0.00 | 0.00 | 0.00 | 55 | 1021.6 |
| 20260901193548 | 69 | 216 | 2.0 | 3.0 | 0.00 | 0.00 | 0.00 | 54 | 1021.5 |
| 20260901193045 | 69 | 216 | 2.0 | 3.0 | 0.00 | 0.00 | 0.00 | 54 | 1021.5 |
| 20260901192545 | 69 | 216 | 3.0 | 4.0 | 0.00 | 0.00 | 0.00 | 54 | 1021.4 |
| 20260901192046 | 69 | 216 | 2.0 | 4.0 | 0.00 | 0.00 | 0.00 | 54 | 1021.4 |
| 20260901191542 | 69 | 216 | 3.0 | 5.0 | 0.00 | 0.00 | 0.00 | 54 | 1021.4 |
| 20260901191042 | 69 | 228 | 3.0 | 5.0 | 0.00 | 0.00 | 0.00 | 54 | 1021.4 |
| 20260901190542 | 69 | 214 | 3.0 | 5.0 | 0.00 | 0.00 | 0.00 | 54 | 1021.3 |
| 20260901190042 | 69 | 220 | 3.0 | 4.0 | 0.00 | 0.00 | 0.00 | 53 | 1021.3 |
| 20260901185542 | 69 | 200 | 1.0 | 4.0 | 0.00 | 0.00 | 0.00 | 53 | 1021.2 |
| 20260901185047 | 69 | 200 | 3.0 | 4.0 | 0.00 | 0.00 | 0.00 | 53 | 1021.2 |
| 20260901184545 | 69 | 207 | 2.0 | 4.0 | 0.00 | 0.00 | 0.00 | 53 | 1021.1 |
| 20260901184042 | 69 | 212 | 4.0 | 4.0 | 0.00 | 0.00 | 0.00 | 53 | 1021.1 |
| 20260901183545 | 69 | 222 | 3.0 | 4.0 | 0.00 | 0.00 | 0.00 | 53 | 1021.0 |
| 20260901183042 | 69 | 205 | 2.0 | 3.0 | 0.00 | 0.00 | 0.00 | 53 | 1020.9 |
| 20260901182548 | 69 | 231 | 2.0 | 3.0 | 0.00 | 0.00 | 0.00 | 53 | 1020.8 |
| 20260901182050 | 69 | 231 | 2.0 | 4.0 | 0.00 | 0.00 | 0.00 | 53 | 1020.8 |
| 20260901181548 | 69 | 225 | 1.0 | 4.0 | 0.00 | 0.00 | 0.00 | 53 | 1020.8 |
| 20260901181045 | 69 | 226 | 3.0 | 4.0 | 0.00 | 0.00 | 0.00 | 53 | 1020.7 |
| 20260901180551 | 70 | 231 | 1.0 | 3.0 | 0.00 | 0.00 | 0.00 | 53 | 1020.7 |
| 20260901180042 | 70 | 226 | 2.0 | 3.0 | 0.00 | 0.00 | 0.00 | 53 | 1020.6 |
| 20260901175545 | 70 | 226 | 2.0 | 2.0 | 0.00 | 0.00 | 0.00 | 52 | 1020.5 |
| 20260901175049 | 70 | 226 | 2.0 | 2.0 | 0.00 | 0.00 | 0.00 | 53 | 1020.6 |
| 20260901174545 | 70 | 248 | 2.0 | 3.0 | 0.00 | 0.00 | 0.00 | 52 | 1020.6 |
| 20260901174045 | 70 | 226 | 0.0 | 3.0 | 0.00 | 0.00 | 0.00 | 52 | 1020.5 |
| 20260901173542 | 71 | 232 | 2.0 | 3.0 | 0.00 | 0.00 | 0.00 | 52 | 1020.5 |
| 20260901173042 | 71 | 255 | 1.0 | 2.0 | 0.00 | 0.00 | 0.00 | 51 | 1020.5 |
| 20260901172542 | 71 | 255 | 1.0 | 4.0 | 0.00 | 0.00 | 0.00 | 51 | 1020.5 |
| 20260901172043 | 71 | 293 | 2.0 | 6.0 | 0.00 | 0.00 | 0.00 | 49 | 1020.5 |
| 20260901171542 | 71 | 185 | 1.0 | 5.0 | 0.00 | 0.00 | 0.00 | 48 | 1020.5 |
| 20260901171042 | 71 | 189 | 2.0 | 6.0 | 0.00 | 0.00 | 0.00 | 48 | 1020.5 |
| 20260901170545 | 72 | 199 | 2.0 | 7.0 | 0.00 | 0.00 | 0.00 | 48 | 1020.5 |
| 20260901170042 | 72 | 193 | 1.0 | 4.0 | 0.00 | 0.00 | 0.00 | 48 | 1020.5 |
| 20260901165548 | 72 | 176 | 1.0 | 5.0 | 0.00 | 0.00 | 0.00 | 47 | 1020.4 |
| 20260901165052 | 72 | 193 | 1.0 | 7.0 | 0.00 | 0.00 | 0.00 | 46 | 1020.5 |
| 20260901164545 | 73 | 158 | 3.0 | 7.0 | 0.00 | 0.00 | 0.00 | 46 | 1020.5 |
| 20260901164042 | 73 | 179 | 4.0 | 9.0 | 0.00 | 0.00 | 0.00 | 46 | 1020.5 |
| 20260901163542 | 73 | 190 | 6.0 | 7.0 | 0.00 | 0.00 | 0.00 | 46 | 1020.4 |
| 20260901163045 | 73 | 188 | 3.0 | 10.0 | 0.00 | 0.00 | 0.00 | 46 | 1020.4 |
| 20260901162545 | 73 | 123 | 6.0 | 6.0 | 0.00 | 0.00 | 0.00 | 46 | 1020.4 |
| 20260901162043 | 73 | 154 | 4.0 | 9.0 | 0.00 | 0.00 | 0.00 | 46 | 1020.4 |
| 20260901161542 | 74 | 175 | 6.0 | 8.0 | 0.00 | 0.00 | 0.00 | 45 | 1020.3 |
| 20260901161045 | 74 | 79 | 1.0 | 5.0 | 0.00 | 0.00 | 0.00 | 46 | 1020.3 |
| 20260901160542 | 74 | 218 | 3.0 | 4.0 | 0.00 | 0.00 | 0.00 | 47 | 1020.3 |
| 20260901160042 | 73 | 237 | 0.0 | 1.0 | 0.00 | 0.00 | 0.00 | 48 | 1020.3 |
| 20260901155542 | 73 | 237 | 1.0 | 5.0 | 0.00 | 0.00 | 0.00 | 48 | 1020.3 |
| 20260901155043 | 73 | 78 | 1.0 | 7.0 | 0.00 | 0.00 | 0.00 | 48 | 1020.3 |
| 20260901154551 | 73 | 206 | 5.0 | 9.0 | 0.00 | 0.00 | 0.00 | 47 | 1020.4 |
| 20260901154045 | 74 | 129 | 2.0 | 8.0 | 0.00 | 0.00 | 0.00 | 47 | 1020.3 |
| 20260901153545 | 73 | 189 | 3.0 | 10.0 | 0.00 | 0.00 | 0.00 | 47 | 1020.4 |
| 20260901153042 | 74 | 141 | 9.0 | 10.0 | 0.00 | 0.00 | 0.00 | 47 | 1020.4 |
| 20260901152542 | 74 | 222 | 2.0 | 7.0 | 0.00 | 0.00 | 0.00 | 47 | 1020.4 |
| 20260901152043 | 74 | 173 | 2.0 | 10.0 | 0.00 | 0.00 | 0.00 | 47 | 1020.4 |
| 20260901151542 | 74 | 180 | 4.0 | 5.0 | 0.00 | 0.00 | 0.00 | 47 | 1020.4 |
| 20260901151042 | 73 | 153 | 2.0 | 5.0 | 0.00 | 0.00 | 0.00 | 48 | 1020.4 |
| 20260901150542 | 73 | 106 | 3.0 | 8.0 | 0.00 | 0.00 | 0.00 | 48 | 1020.4 |
| 20260901150042 | 73 | 158 | 4.0 | 10.0 | 0.00 | 0.00 | 0.00 | 48 | 1020.4 |
| 20260901145542 | 73 | 229 | 2.0 | 6.0 | 0.00 | 0.00 | 0.00 | 48 | 1020.4 |
| 20260901145043 | 73 | 216 | 5.0 | 11.0 | 0.00 | 0.00 | 0.00 | 48 | 1020.4 |
| 20260901144545 | 72 | 157 | 8.0 | 9.0 | 0.00 | 0.00 | 0.00 | 49 | 1020.4 |
| 20260901144045 | 72 | 213 | 1.0 | 7.0 | 0.00 | 0.00 | 0.00 | 49 | 1020.4 |
| 20260901143545 | 73 | 206 | 4.0 | 11.0 | 0.00 | 0.00 | 0.00 | 47 | 1020.5 |
| 20260901143042 | 73 | 174 | 11.0 | 15.0 | 0.00 | 0.00 | 0.00 | 48 | 1020.5 |
| 20260901142548 | 72 | 158 | 0.0 | 9.0 | 0.00 | 0.00 | 0.00 | 49 | 1020.4 |
| 20260901142046 | 72 | 224 | 8.0 | 11.0 | 0.00 | 0.00 | 0.00 | 48 | 1020.5 |
| 20260901141542 | 73 | 160 | 7.0 | 14.0 | 0.00 | 0.00 | 0.00 | 48 | 1020.6 |
| 20260901141042 | 73 | 185 | 3.0 | 10.0 | 0.00 | 0.00 | 0.00 | 48 | 1020.5 |
| 20260901140542 | 73 | 140 | 5.0 | 12.0 | 0.00 | 0.00 | 0.00 | 49 | 1020.5 |
| 20260901140042 | 72 | 161 | 2.0 | 11.0 | 0.00 | 0.00 | 0.00 | 50 | 1020.5 |
| 20260901135545 | 72 | 195 | 6.0 | 9.0 | 0.00 | 0.00 | 0.00 | 49 | 1020.6 |
| 20260901135043 | 72 | 224 | 5.0 | 8.0 | 0.00 | 0.00 | 0.00 | 50 | 1020.5 |
| 20260901134542 | 72 | 231 | 5.0 | 9.0 | 0.00 | 0.00 | 0.00 | 50 | 1020.6 |
| 20260901134042 | 72 | 162 | 3.0 | 8.0 | 0.00 | 0.00 | 0.00 | 52 | 1020.6 |
| 20260901133542 | 72 | 143 | 7.0 | 7.0 | 0.00 | 0.00 | 0.00 | 51 | 1020.6 |
| 20260901133042 | 72 | 250 | 2.0 | 6.0 | 0.00 | 0.00 | 0.00 | 51 | 1020.7 |
| 20260901132545 | 72 | 19 | 2.0 | 9.0 | 0.00 | 0.00 | 0.00 | 51 | 1020.8 |
| 20260901132043 | 71 | 282 | 2.0 | 10.0 | 0.00 | 0.00 | 0.00 | 51 | 1020.8 |
| 20260901131551 | 71 | 129 | 2.0 | 14.0 | 0.00 | 0.00 | 0.00 | 51 | 1020.8 |
| 20260901131045 | 71 | 210 | 4.0 | 10.0 | 0.00 | 0.00 | 0.00 | 51 | 1020.7 |
| 20260901130545 | 71 | 310 | 2.0 | 11.0 | 0.00 | 0.00 | 0.00 | 52 | 1020.8 |
| 20260901130045 | 71 | 191 | 5.0 | 6.0 | 0.00 | 0.00 | 0.00 | 54 | 1020.8 |
| 20260901125545 | 71 | 200 | 5.0 | 8.0 | 0.00 | 0.00 | 0.00 | 53 | 1020.9 |
| 20260901125043 | 70 | 91 | 2.0 | 12.0 | 0.00 | 0.00 | 0.00 | 54 | 1020.8 |
| 20260901124542 | 70 | 206 | 8.0 | 13.0 | 0.00 | 0.00 | 0.00 | 54 | 1020.8 |
| 20260901124042 | 70 | 138 | 2.0 | 9.0 | 0.00 | 0.00 | 0.00 | 54 | 1020.9 |
| 20260901123542 | 69 | 208 | 6.0 | 10.0 | 0.00 | 0.00 | 0.00 | 54 | 1020.9 |
| 20260901123042 | 69 | 181 | 9.0 | 12.0 | 0.00 | 0.00 | 0.00 | 55 | 1020.9 |
| 20260901122542 | 70 | 205 | 5.0 | 10.0 | 0.00 | 0.00 | 0.00 | 55 | 1021.0 |
| 20260901122046 | 70 | 183 | 7.0 | 10.0 | 0.00 | 0.00 | 0.00 | 54 | 1021.0 |
| 20260901121542 | 70 | 189 | 3.0 | 8.0 | 0.00 | 0.00 | 0.00 | 56 | 1021.0 |
| 20260901121048 | 69 | 219 | 3.0 | 10.0 | 0.00 | 0.00 | 0.00 | 56 | 1021.0 |
| 20260901120545 | 69 | 218 | 2.0 | 8.0 | 0.00 | 0.00 | 0.00 | 56 | 1021.0 |
| 20260901120042 | 69 | 189 | 4.0 | 12.0 | 0.00 | 0.00 | 0.00 | 56 | 1021.1 |
| 20260901115542 | 69 | 240 | 6.0 | 16.0 | 0.00 | 0.00 | 0.00 | 56 | 1021.1 |
| 20260901115043 | 69 | 201 | 9.0 | 14.0 | 0.00 | 0.00 | 0.00 | 56 | 1021.0 |
| 20260901114545 | 69 | 222 | 8.0 | 14.0 | 0.00 | 0.00 | 0.00 | 55 | 1021.0 |
| 20260901114045 | 69 | 162 | 9.0 | 12.0 | 0.00 | 0.00 | 0.00 | 56 | 1021.1 |
| 20260901113542 | 69 | 170 | 6.0 | 11.0 | 0.00 | 0.00 | 0.00 | 57 | 1021.0 |
| 20260901113045 | 69 | 163 | 6.0 | 13.0 | 0.00 | 0.00 | 0.00 | 57 | 1021.1 |
| 20260901112542 | 69 | 142 | 8.0 | 9.0 | 0.00 | 0.00 | 0.00 | 57 | 1021.1 |
| 20260901112043 | 69 | 220 | 5.0 | 10.0 | 0.00 | 0.00 | 0.00 | 56 | 1021.1 |
| 20260901111542 | 70 | 169 | 4.0 | 7.0 | 0.00 | 0.00 | 0.00 | 57 | 1021.1 |
| 20260901111045 | 70 | 293 | 3.0 | 7.0 | 0.00 | 0.00 | 0.00 | 58 | 1021.1 |
| 20260901110542 | 69 | 127 | 5.0 | 11.0 | 0.00 | 0.00 | 0.00 | 60 | 1021.0 |
| 20260901110042 | 68 | 158 | 7.0 | 12.0 | 0.00 | 0.00 | 0.00 | 59 | 1021.1 |
| 20260901105542 | 68 | 138 | 4.0 | 11.0 | 0.00 | 0.00 | 0.00 | 60 | 1021.0 |
| 20260901105043 | 68 | 145 | 10.0 | 10.0 | 0.00 | 0.00 | 0.00 | 60 | 1021.1 |
| 20260901104542 | 68 | 148 | 6.0 | 11.0 | 0.00 | 0.00 | 0.00 | 59 | 1021.0 |
| 20260901104048 | 68 | 149 | 7.0 | 11.0 | 0.00 | 0.00 | 0.00 | 59 | 1021.1 |
| 20260901103542 | 68 | 150 | 9.0 | 12.0 | 0.00 | 0.00 | 0.00 | 59 | 1021.1 |
| 20260901103042 | 68 | 212 | 4.0 | 7.0 | 0.00 | 0.00 | 0.00 | 62 | 1021.1 |
| 20260901102551 | 67 | 161 | 3.0 | 9.0 | 0.00 | 0.00 | 0.00 | 62 | 1021.1 |
| 20260901102051 | 67 | 212 | 3.0 | 11.0 | 0.00 | 0.00 | 0.00 | 63 | 1021.2 |
| 20260901101543 | 67 | 166 | 4.0 | 8.0 | 0.00 | 0.00 | 0.00 | 62 | 1021.0 |
| 20260901101042 | 67 | 211 | 3.0 | 13.0 | 0.00 | 0.00 | 0.00 | 62 | 1021.1 |
| 20260901100545 | 67 | 118 | 6.0 | 13.0 | 0.00 | 0.00 | 0.00 | 62 | 1021.0 |
| 20260901100045 | 67 | 171 | 8.0 | 13.0 | 0.00 | 0.00 | 0.00 | 62 | 1021.1 |
| 20260901095545 | 68 | 223 | 4.0 | 11.0 | 0.00 | 0.00 | 0.00 | 60 | 1020.9 |
| 20260901095042 | 67 | 133 | 3.0 | 11.0 | 0.00 | 0.00 | 0.00 | 60 | 1020.9 |
| 20260901094548 | 67 | 164 | 7.0 | 9.0 | 0.00 | 0.00 | 0.00 | 62 | 1020.9 |
| 20260901094043 | 67 | 89 | 7.0 | 11.0 | 0.00 | 0.00 | 0.00 | 62 | 1020.8 |
| 20260901093542 | 67 | 138 | 5.0 | 14.0 | 0.00 | 0.00 | 0.00 | 63 | 1020.8 |
| 20260901093042 | 66 | 155 | 3.0 | 13.0 | 0.00 | 0.00 | 0.00 | 62 | 1020.9 |
| 20260901092542 | 67 | 141 | 4.0 | 16.0 | 0.00 | 0.00 | 0.00 | 62 | 1021.0 |
| 20260901092042 | 67 | 160 | 4.0 | 11.0 | 0.00 | 0.00 | 0.00 | 63 | 1020.9 |
| 20260901091548 | 66 | 160 | 10.0 | 12.0 | 0.00 | 0.00 | 0.00 | 63 | 1020.9 |
| 20260901091046 | 66 | 199 | 9.0 | 15.0 | 0.00 | 0.00 | 0.00 | 63 | 1021.0 |
| 20260901090545 | 66 | 239 | 1.0 | 16.0 | 0.00 | 0.00 | 0.00 | 64 | 1021.0 |
| 20260901090042 | 66 | 194 | 7.0 | 12.0 | 0.00 | 0.00 | 0.00 | 66 | 1020.9 |
| 20260901085545 | 66 | 209 | 5.0 | 13.0 | 0.00 | 0.00 | 0.00 | 66 | 1020.9 |
| 20260901085042 | 65 | 194 | 8.0 | 17.0 | 0.00 | 0.00 | 0.00 | 66 | 1020.8 |
| 20260901084548 | 65 | 212 | 10.0 | 15.0 | 0.00 | 0.00 | 0.00 | 65 | 1020.8 |
| 20260901084049 | 65 | 190 | 4.0 | 12.0 | 0.00 | 0.00 | 0.00 | 66 | 1020.7 |
| 20260901083545 | 65 | 242 | 6.0 | 15.0 | 0.00 | 0.00 | 0.00 | 65 | 1020.7 |
| 20260901083045 | 65 | 193 | 3.0 | 14.0 | 0.00 | 0.00 | 0.00 | 66 | 1020.8 |
| 20260901082542 | 65 | 185 | 7.0 | 11.0 | 0.00 | 0.00 | 0.00 | 68 | 1020.7 |
| 20260901082048 | 65 | 247 | 3.0 | 11.0 | 0.00 | 0.00 | 0.00 | 68 | 1020.6 |
| 20260901081542 | 64 | 188 | 3.0 | 16.0 | 0.00 | 0.00 | 0.00 | 69 | 1020.5 |
| 20260901081046 | 64 | 181 | 5.0 | 13.0 | 0.00 | 0.00 | 0.00 | 69 | 1020.3 |
| 20260901080542 | 64 | 214 | 8.0 | 14.0 | 0.00 | 0.00 | 0.00 | 69 | 1020.3 |
| 20260901080048 | 64 | 174 | 9.0 | 13.0 | 0.00 | 0.00 | 0.00 | 70 | 1020.3 |
| 20260901075545 | 64 | 198 | 13.0 | 18.0 | 0.00 | 0.00 | 0.00 | 70 | 1020.2 |
| 20260901075048 | 64 | 199 | 11.0 | 14.0 | 0.00 | 0.00 | 0.00 | 71 | 1020.2 |
| 20260901074542 | 63 | 222 | 2.0 | 18.0 | 0.00 | 0.00 | 0.00 | 72 | 1020.2 |
| 20260901074043 | 63 | 208 | 16.0 | 16.0 | 0.00 | 0.00 | 0.00 | 72 | 1020.2 |